When you browse on this site, cookies collect data to enhance your experience and personalize the content and advertising you see.
Visit our Privacy Policy to learn more. By continuing to use the site, you agree to this use of cookies and data.
  • Em Portugal
  • Lista de países
  • Para 7 dias
  • Temperatura da água
  • Mapas de satélite
  • Mapa do tempo
  • Widgets de tempo
  • user-avatar
    Iniciar Sessão

    Previsão horária em Brugia

    Hoje, 26 Maio, Domingo

    Tempo Temperatura Precipitação Vento Pressão Humidade
    00:00 +11°C° 0 mm 3 m/s 762 mmHg 93%
    01:00 +11°C° 0 mm 4 m/s 761 mmHg 94%
    02:00 +11°C° 0 mm 4 m/s 761 mmHg 95%
    03:00 +11°C° 0 mm 4 m/s 761 mmHg 95%
    04:00 +12°C° 0 mm 4 m/s 761 mmHg 94%
    05:00 +13°C° 0 mm 5 m/s 760 mmHg 92%
    06:00 +14°C° 0 mm 5 m/s 760 mmHg 90%
    07:00 +15°C° 0 mm 6 m/s 760 mmHg 84%
    08:00 +17°C° 0 mm 6 m/s 760 mmHg 78%
    09:00 +19°C° 0 mm 6 m/s 760 mmHg 72%
    10:00 +18°C° 0 mm 7 m/s 760 mmHg 71%
    11:00 +20°C° 0 mm 7 m/s 759 mmHg 70%
    12:00 +20°C° 0 mm 8 m/s 759 mmHg 69%
    13:00 +20°C° 0 mm 8 m/s 759 mmHg 70%
    14:00 +20°C° 0 mm 8 m/s 758 mmHg 72%
    15:00 +18°C° 0 mm 8 m/s 758 mmHg 73%
    16:00 +18°C° 0 mm 8 m/s 758 mmHg 76%
    17:00 +17°C° 0 mm 8 m/s 757 mmHg 79%
    18:00 +16°C° 0 mm 8 m/s 757 mmHg 82%
    19:00 +15°C° 0.2 mm 7 m/s 757 mmHg 85%
    20:00 +15°C° 0.2 mm 7 m/s 757 mmHg 88%
    21:00 +14°C° 0.2 mm 7 m/s 757 mmHg 91%
    22:00 +14°C° 0.1 mm 6 m/s 757 mmHg 91%
    23:00 +14°C° 0.1 mm 6 m/s 757 mmHg 91%

    Amanhã, 27 Maio, Segunda-feira

    Tempo Temperatura Precipitação Vento Pressão Humidade
    00:00 +14°C° 0.1 mm 5 m/s 757 mmHg 91%
    01:00 +13°C° 0 mm 5 m/s 757 mmHg 90%
    02:00 +12°C° 0 mm 4 m/s 757 mmHg 89%
    03:00 +12°C° 0 mm 4 m/s 757 mmHg 88%
    04:00 +12°C° 0 mm 4 m/s 757 mmHg 86%
    05:00 +12°C° 0 mm 4 m/s 758 mmHg 85%
    06:00 +12°C° 0 mm 4 m/s 758 mmHg 83%
    07:00 +13°C° 0 mm 4 m/s 758 mmHg 78%
    08:00 +13°C° 0 mm 5 m/s 758 mmHg 73%
    09:00 +14°C° 0 mm 5 m/s 758 mmHg 69%
    10:00 +14°C° 0 mm 5 m/s 758 mmHg 66%
    11:00 +15°C° 0 mm 5 m/s 758 mmHg 64%
    12:00 +15°C° 0 mm 5 m/s 758 mmHg 61%
    13:00 +15°C° 0 mm 4 m/s 758 mmHg 60%
    14:00 +17°C° 0 mm 4 m/s 757 mmHg 59%
    15:00 +17°C° 0 mm 4 m/s 757 mmHg 58%
    16:00 +17°C° 0 mm 4 m/s 757 mmHg 63%
    17:00 +15°C° 0 mm 5 m/s 757 mmHg 67%
    18:00 +15°C° 0 mm 5 m/s 756 mmHg 71%
    19:00 +14°C° 0.1 mm 5 m/s 756 mmHg 75%
    20:00 +13°C° 0.1 mm 5 m/s 756 mmHg 79%
    21:00 +12°C° 0.1 mm 5 m/s 756 mmHg 83%
    22:00 +12°C° 0.1 mm 5 m/s 756 mmHg 84%
    23:00 +12°C° 0.1 mm 4 m/s 756 mmHg 84%

    Depois de amanhã, 28 Maio, Terça-feira

    Tempo Temperatura Precipitação Vento Pressão Humidade
    00:00 +12°C° 0.1 mm 4 m/s 755 mmHg 84%
    01:00 +11°C° 0 mm 4 m/s 755 mmHg 86%
    02:00 +11°C° 0 mm 4 m/s 755 mmHg 87%
    03:00 +10°C° 0 mm 4 m/s 754 mmHg 89%
    04:00 +11°C° 0.3 mm 4 m/s 754 mmHg 87%
    05:00 +11°C° 0.3 mm 4 m/s 754 mmHg 85%
    06:00 +12°C° 0.3 mm 4 m/s 754 mmHg 83%
    07:00 +12°C° 0.8 mm 4 m/s 754 mmHg 82%
    08:00 +13°C° 0.8 mm 4 m/s 754 mmHg 80%
    09:00 +13°C° 0.8 mm 4 m/s 755 mmHg 78%
    10:00 +14°C° 0.7 mm 4 m/s 755 mmHg 76%
    11:00 +14°C° 0.7 mm 4 m/s 755 mmHg 74%
    12:00 +15°C° 0.7 mm 4 m/s 755 mmHg 73%
    13:00 +15°C° 0.1 mm 4 m/s 755 mmHg 71%
    14:00 +15°C° 0.1 mm 5 m/s 755 mmHg 70%
    15:00 +15°C° 0.1 mm 5 m/s 756 mmHg 68%
    16:00 +14°C° 0 mm 5 m/s 756 mmHg 71%
    17:00 +14°C° 0 mm 4 m/s 756 mmHg 73%
    18:00 +13°C° 0 mm 4 m/s 757 mmHg 76%
    19:00 +12°C° 0 mm 4 m/s 758 mmHg 82%
    20:00 +11°C° 0 mm 4 m/s 758 mmHg 87%
    21:00 +10°C° 0 mm 4 m/s 759 mmHg 93%
    22:00 +10°C° 0 mm 4 m/s 759 mmHg 93%
    23:00 +10°C° 0 mm 4 m/s 760 mmHg 92%

    29 Maio, Quarta-feira

    Tempo Temperatura Precipitação Vento Pressão Humidade
    00:00 +10°C° 0 mm 4 m/s 760 mmHg 92%
    01:00 +10°C° 0 mm 4 m/s 761 mmHg 89%
    02:00 +10°C° 0 mm 4 m/s 761 mmHg 87%
    03:00 +10°C° 0 mm 3 m/s 761 mmHg 84%
    04:00 +10°C° 0 mm 3 m/s 762 mmHg 81%
    05:00 +11°C° 0 mm 3 m/s 762 mmHg 79%
    06:00 +11°C° 0 mm 3 m/s 763 mmHg 76%
    07:00 +12°C° 0 mm 3 m/s 763 mmHg 71%
    08:00 +13°C° 0 mm 3 m/s 763 mmHg 66%
    09:00 +14°C° 0 mm 2 m/s 764 mmHg 61%
    10:00 +15°C° 0 mm 2 m/s 764 mmHg 59%
    11:00 +15°C° 0 mm 2 m/s 764 mmHg 57%
    12:00 +16°C° 0 mm 2 m/s 764 mmHg 55%
    13:00 +16°C° 0 mm 2 m/s 764 mmHg 55%
    14:00 +16°C° 0 mm 2 m/s 764 mmHg 56%
    15:00 +16°C° 0 mm 2 m/s 764 mmHg 56%
    16:00 +16°C° 0 mm 2 m/s 764 mmHg 57%
    17:00 +16°C° 0 mm 1 m/s 764 mmHg 58%
    18:00 +16°C° 0 mm 1 m/s 764 mmHg 60%
    19:00 +14°C° 0 mm 1 m/s 764 mmHg 65%
    20:00 +13°C° 0 mm 2 m/s 764 mmHg 70%
    21:00 +12°C° 0 mm 2 m/s 764 mmHg 75%
    22:00 +11°C° 0.1 mm 3 m/s 764 mmHg 77%
    23:00 +11°C° 0.1 mm 3 m/s 764 mmHg 80%

    30 Maio, Quinta-feira

    Tempo Temperatura Precipitação Vento Pressão Humidade
    00:00 +11°C° 0.1 mm 4 m/s 764 mmHg 82%
    01:00 +11°C° 0 mm 3 m/s 764 mmHg 86%
    02:00 +10°C° 0 mm 3 m/s 764 mmHg 89%
    03:00 +9°C° 0 mm 3 m/s 764 mmHg 93%
    04:00 +10°C° 0 mm 3 m/s 764 mmHg 91%
    05:00 +11°C° 0 mm 3 m/s 765 mmHg 88%
    06:00 +12°C° 0 mm 3 m/s 765 mmHg 86%
    07:00 +13°C° 0.1 mm 3 m/s 765 mmHg 82%
    08:00 +14°C° 0.1 mm 3 m/s 765 mmHg 79%
    09:00 +15°C° 0.1 mm 4 m/s 765 mmHg 76%
    10:00 +15°C° 0.1 mm 4 m/s 765 mmHg 74%
    11:00 +15°C° 0.1 mm 4 m/s 765 mmHg 73%
    12:00 +17°C° 0.1 mm 4 m/s 766 mmHg 71%
    13:00 +17°C° 0 mm 4 m/s 766 mmHg 71%
    14:00 +17°C° 0 mm 3 m/s 766 mmHg 71%
    15:00 +17°C° 0 mm 3 m/s 766 mmHg 71%
    16:00 +16°C° 0.1 mm 3 m/s 766 mmHg 74%
    17:00 +15°C° 0.1 mm 2 m/s 766 mmHg 77%
    18:00 +15°C° 0.1 mm 2 m/s 766 mmHg 79%
    19:00 +14°C° 0.1 mm 2 m/s 766 mmHg 81%
    20:00 +13°C° 0.1 mm 2 m/s 767 mmHg 82%
    21:00 +13°C° 0.1 mm 1 m/s 767 mmHg 84%
    22:00 +13°C° 0.7 mm 2 m/s 767 mmHg 87%
    23:00 +13°C° 0.7 mm 2 m/s 767 mmHg 90%

    31 Maio, Sexta-feira

    Tempo Temperatura Precipitação Vento Pressão Humidade
    00:00 +12°C° 0.7 mm 3 m/s 767 mmHg 94%
    01:00 +13°C° 0.1 mm 3 m/s 767 mmHg 95%
    02:00 +13°C° 0.1 mm 3 m/s 767 mmHg 96%
    03:00 +13°C° 0.1 mm 4 m/s 767 mmHg 97%
    04:00 +14°C° 0 mm 4 m/s 767 mmHg 96%
    05:00 +14°C° 0 mm 4 m/s 767 mmHg 95%
    06:00 +14°C° 0 mm 4 m/s 767 mmHg 94%
    07:00 +15°C° 0 mm 5 m/s 767 mmHg 92%
    08:00 +15°C° 0 mm 5 m/s 767 mmHg 89%
    09:00 +16°C° 0 mm 5 m/s 767 mmHg 87%
    10:00 +17°C° 0 mm 6 m/s 767 mmHg 83%
    11:00 +17°C° 0 mm 7 m/s 767 mmHg 79%
    12:00 +18°C° 0 mm 7 m/s 767 mmHg 75%
    13:00 +20°C° 0 mm 8 m/s 767 mmHg 73%
    14:00 +20°C° 0 mm 8 m/s 767 mmHg 72%
    15:00 +20°C° 0 mm 8 m/s 767 mmHg 70%
    16:00 +18°C° 0 mm 8 m/s 768 mmHg 74%
    17:00 +18°C° 0 mm 7 m/s 768 mmHg 77%
    18:00 +17°C° 0 mm 7 m/s 768 mmHg 81%
    19:00 +16°C° 0 mm 7 m/s 768 mmHg 85%
    20:00 +15°C° 0 mm 6 m/s 768 mmHg 89%
    21:00 +14°C° 0 mm 6 m/s 769 mmHg 93%
    22:00 +14°C° 0 mm 6 m/s 769 mmHg 94%
    23:00 +14°C° 0 mm 5 m/s 769 mmHg 95%
    Mostrar mais